Regional Weather Roundup
Issued by NWS Sterling, VA

Home | Current Version | Previous Version | Graphics & Text | Print | Product List | Glossary On
Versions: 1 2 3 4 5 6 7 8 9 10 11 12 13 14 15 16 17 18 19 20 21 22 23 24 25 26 27 28 29 30 31 32 33 34 35 36 37 38 39 40 41 42 43 44 45 46 47 48 49 50
000
ASUS41 KLWX 312210
RWRLWX

REGIONAL WEATHER ROUNDUP
NATIONAL WEATHER SERVICE BALTIMORE MD/WASHINGTON DC
500 PM EST SAT JAN 31 2015

Note: "FAIR" indicates few or no clouds below 12,000 feet
with no significant weather and/or obstructions to visibility.
 TC=TEMPERATURE CELSIUS

 * =Non NWS site. Station does not report precipitation (e.g. rain,
    snow, etc.), thunder, or fog.

DCZ001-MDZ009-015-VAZ040>042-051-053>054-312300-
WASHINGTON METRO

CITY           SKY/WX    TMP DP  RH WIND       PRES   REMARKS
WASHINGTON NAT PTCLDY    35   8  32 NW8       30.28S WCI  29
DULLES         PTCLDY    33  10  38 NW7       30.26R
ANDREWS AFB    CLEAR     31   8  38 NW10      30.25S WCI  22
FT BELVOIR     CLEAR     35   8  33 NW6       30.28R
QUANTICO       CLEAR     36   7  29 CALM      30.29R
COLLEGE PARK*  CLEAR     32   7  34 W8        30.27S WCI  25
LEESBURG*      CLEAR     34  14  44 CALM      30.26S
MANASSAS*      CLEAR     36   9  32 W5        30.27S
GAITHERSBURG*  CLEAR     28   9  43 W7        30.28S

$$

MDZ006>007-011-014-312300-
BALTIMORE METRO

CITY           SKY/WX    TMP DP  RH WIND       PRES   REMARKS
BWI AIRPORT    PTCLDY    30   6  36 W7        30.25S
MD SCIENCE CTR   N/A     30   4  33 MISG      30.26S
MARTIN STATE   CLEAR     30   9  40 W13       30.27S WCI  20
ANNAPOLIS      CLEAR     31   6  35 W7        30.26S
FORT MEADE*    CLEAR     30   9  40 W10G16    30.28S WCI  21

$$

MDZ012-015-019>023-312300-
MARYLAND EASTERN SHORE

CITY           SKY/WX    TMP DP  RH WIND       PRES   REMARKS
OCEAN CITY     CLEAR     30   7  37 NW9G17    30.23R WCI  22
SALISBURY      CLEAR     32   6  33 W14G23    30.24R WCI  22
BAY BRIDGE AP*   N/A     32   5  32 W12       30.27S WCI  23
CAMBRIDGE*     CLEAR     32   7  34 NW9G16    30.27R WCI  24
EASTON*        CLEAR     30  10  43 NW7       30.29S

$$

MDZ017>025-312300-
SOUTHERN MARYLAND

CITY           SKY/WX    TMP DP  RH WIND       PRES   REMARKS
PATUXENT RIVER PTCLDY    32   5  32 W12       30.27R WCI  23
ST INIGOES     NOT AVBL
LEONARDTOWN*   CLEAR     32   5  32 W9        30.28S WCI  24

$$

MDZ003>005-312300-
NORTH CENTRAL MARYLAND

CITY           SKY/WX    TMP DP  RH WIND       PRES   REMARKS
FREDERICK*     CLEAR     32   7  34 NW7       30.28S
HAGERSTOWN APT CLEAR     28   9  44 NW10      30.22S WCI  19
WESTMINSTER*   CLEAR     27   7  43 W9        30.22R WCI  17

$$

MDZ501>502-312300-
WESTERN MARYLAND

CITY           SKY/WX    TMP DP  RH WIND       PRES   REMARKS
OAKLAND*       CLEAR     21   7  53 W8        30.12S WCI  12
CUMBERLAND*    CLEAR     34   9  35 W9        30.28R WCI  26

$$

VAZ025>031-312300-
SHENANDOAH VALLEY

CITY           SKY/WX    TMP DP  RH WIND       PRES   REMARKS
WINCHESTER*    CLEAR     34   5  29 NW10      30.22S WCI  26
FRONT ROYAL*   FAIR      36   7  30 CALM      30.21S
LURAY*         FAIR      39   9  28 S3        30.22R
NEW MARKET*    FAIR      37  10  32 CALM      30.22R
STAUNTON*      CLEAR     39   4  23 N3        30.22S
WAYNESBORO*    FAIR      40   4  21 SW6       30.19R

$$

WVZ021-048>050-054>055-312300-
EASTERN WEST VIRGINIA PANHANDLE

CITY           SKY/WX    TMP DP  RH WIND       PRES   REMARKS
MARTINSBURG    CLEAR     34   9  35 W8        30.24S WCI  27
PETERSBURG*    CLEAR     36  -2  19 SW6       30.24R

$$

VAZ036>039-050-312300-
CENTRAL FOOTHILLS

CITY           SKY/WX    TMP DP  RH WIND       PRES   REMARKS
CHARLOTTESVILL CLEAR     40   3  21 SE7       30.22S
CULPEPER*      CLEAR     37   3  23 CALM      30.26R
ORANGE*        CLEAR     39   5  24 CALM      30.26R
GORDONSVILLE*  FAIR      39   3  22 SW3       30.23S
WARRENTON*     FAIR      37  13  37 CALM      30.25S

$$

VAZ055>057-312300-
NORTH AND CENTRAL PIEDMONT

CITY           SKY/WX    TMP DP  RH WIND       PRES   REMARKS
FREDERICKSBRG* CLEAR     38   4  23 CALM      30.26S
STAFFORD*      CLEAR     36  -1  21 CALM      30.30S

$$

NCZ024-NYZ072-PAZ021-071-VAZ022-071-312300-
OTHER REGIONAL OBSERVATIONS

CITY           SKY/WX    TMP DP  RH WIND       PRES   REMARKS
NEW YORK CITY  CLEAR     25   0  33 NW17G24   30.13R WCI  12
PHILADELPHIA   CLEAR     28   5  37 W16       30.22R WCI  16
PITTSBURGH     PTCLDY    27  14  58 W8        30.23S WCI  19
ROANOKE        MOCLDY    44   2  17 W10       30.25S
RICHMOND       MOCLDY    41   3  20 W7        30.27S
RALEIGH        PTCLDY    46   7  20 W3        30.29R

$$

ANZ530>537-312300-
MARINE OBSERVATIONS

STATION/POSITION TIME  TEMP    WIND        PRES
                       AIR SEA DIR/SP/G
                 (UTC) (F)     (DEG/KT/KT) (MB)
THOMAS PT LIGHT  2200   31 35  290/ 12/ 14 1025.9R
BALT KEY BRIDGE  2200   30     270/ 12/ 14 1024.5S
COVE POINT       2200   31     330/  8/ 12 1024.8R
LEWISETTA        2200   33 34  310/  4/  5 1025.0R
SOLOMONS ISLAND  2200      36                N/A
PINEY POINT      2200          320/ 12/ 13   N/A

$$



USA.gov is the U.S. government's official web portal to all federal, state and local government web resources and services.